Beijing, China

9:52 PM CST on December 17, 2017 (GMT +0800)
Beijing Capital

Weather History for ZBAA - December, 2017

Change the Weather History Date:

Thursday, December 7, 2017

  Actual Average Record
Temperature  
Mean Temperature 31 °F -  
Max Temperature 41 °F 37 °F 50 °F (2004)
Min Temperature 21 °F 19 °F 12 °F (2005)
Degree Days  
Heating Degree Days 34    
Moisture  
Dew Point 5 °F    
Average Humidity 31    
Maximum Humidity 63    
Minimum Humidity 10    
Precipitation  
Precipitation 0.00 in 0.00 in - ()
Sea Level Pressure  
Sea Level Pressure 30.42 in    
Wind  
Wind Speed 9 mph ()    
Max Wind Speed 25 mph    
Max Gust Speed 34 mph    
Visibility 18.6 miles    
Events      
Averages and records for this station are not official NWS values.
T = Trace of Precipitation, MM = Missing Value Source: Averaged Metar Reports

Daily Weather History Graph

Daily Weather History Graph

Search for Another Location

Airport or City:

Trip Planner

Search our weather history database for the weather conditions in past years. The results will help you decide how hot, cold, wet, or windy it might be!

Date:

Astronomy

Dec. 07, 2017 Rise Set
Actual Time 7:21 AM CST 4:48 PM CST
Civil Twilight 6:51 AM CST 5:18 PM CST
Nautical Twilight 6:17 AM CST 5:52 PM CST
Astronomical Twilight 5:44 AM CST 6:25 PM CST
Moon 8:55 PM CST (12/7) 10:34 AM CST (12/7)
Length of Visible Light 10h 26m
Length of Day
9h 26m
Waning Gibbous, 83% of the Moon is Illuminated
Dec 7
Waning Gibbous
Dec 10
Last Quarter
Dec 18
New
Dec 26
First Quarter
Jan 2
Full

Hourly Weather History & Observations

Time (CST) Temp. Windchill Dew Point Humidity Pressure Visibility Wind Dir Wind Speed Gust Speed Precip Events Conditions
12:00 AM 32.0 °F 24.3 °F 5.0 °F 32% 30.27 in - North 8.9 mph - N/A   Clear
12:30 AM 33.8 °F 26.5 °F 5.0 °F 30% 30.30 in - NNW 8.9 mph - N/A   Clear
1:00 AM 30.2 °F 23.5 °F 8.6 °F 40% 30.30 in - North 6.7 mph - N/A   Clear
1:30 AM 28.4 °F 23.4 °F 8.6 °F 43% 30.30 in - NNE 4.5 mph - N/A   Clear
2:00 AM 36 °F - 4 °F 14% 30.31 in 19 mi ENE 2.2 mph - -  
2:00 AM 26.6 °F 21.3 °F 8.6 °F 47% 30.30 in - NNE 4.5 mph - N/A   Clear
2:30 AM 30.2 °F 23.5 °F 10.4 °F 44% 30.30 in - North 6.7 mph - N/A   Clear
3:00 AM 28.4 °F 23.4 °F 10.4 °F 47% 30.30 in - North 4.5 mph - N/A   Clear
3:30 AM 26.6 °F - 10.4 °F 51% 30.30 in - Calm Calm - N/A   Clear
4:00 AM 23.0 °F - 10.4 °F 59% 30.30 in - NNE 2.2 mph - N/A   Clear
4:30 AM 21.2 °F - 8.6 °F 58% 30.30 in - North 2.2 mph - N/A   Clear
5:00 AM 32 °F - 6 °F 20% 30.32 in 19 mi East 4.5 mph - -  
5:00 AM 23.0 °F 17.1 °F 10.4 °F 59% 30.30 in - NNW 4.5 mph - N/A   Clear
5:30 AM 21.2 °F - 10.4 °F 63% 30.33 in - NNE 2.2 mph - N/A   Clear
6:00 AM 23.0 °F - 10.4 °F 59% 30.33 in - Calm Calm - N/A   Clear
6:30 AM 21.2 °F - 10.4 °F 63% 30.36 in - Variable 2.2 mph - N/A   Clear
7:00 AM 24.8 °F - 10.4 °F 54% 30.36 in - Variable 2.2 mph - N/A   Clear
7:30 AM 24.8 °F 19.2 °F 12.2 °F 59% 30.39 in - SSE 4.5 mph - N/A   Clear
8:00 AM 32 °F - 7 °F 20% 30.39 in 18 mi ENE 2.2 mph - -   Mostly Cloudy
8:00 AM 26.6 °F - 12.2 °F 55% 30.39 in - Variable 2.2 mph - N/A   Clear
8:30 AM 30.2 °F 25.5 °F 15.8 °F 55% 30.39 in - East 4.5 mph - N/A   Clear
9:00 AM 37.4 °F 32.2 °F 10.4 °F 33% 30.42 in - North 6.7 mph - N/A   Clear
9:30 AM 39.2 °F 30.6 °F 6.8 °F 26% 30.42 in - NW 15.7 mph 26.8 mph N/A   Clear
10:00 AM 39.2 °F 30.6 °F 5.0 °F 24% 30.42 in - NNW 15.7 mph - N/A   Clear
10:30 AM 39.2 °F 30.0 °F 5.0 °F 24% 30.45 in - NW 17.9 mph - N/A   Clear
11:00 AM 38 °F - 6 °F 14% 30.44 in 17 mi NNE 11.2 mph - -   Scattered Clouds
11:00 AM 39.2 °F 29.4 °F 5.0 °F 24% 30.45 in - NW 20.1 mph 31.3 mph N/A   Clear
11:30 AM 39.2 °F 30.0 °F 3.2 °F 22% 30.45 in - NNW 17.9 mph - N/A   Clear
12:00 PM 41.0 °F 31.8 °F 3.2 °F 21% 30.42 in - NNW 20.1 mph - N/A   Clear
12:30 PM 41.0 °F 32.3 °F 1.4 °F 19% 30.42 in - NNW 17.9 mph - N/A   Clear
1:00 PM 41.0 °F 31.3 °F 1.4 °F 19% 30.42 in - NW 22.4 mph - N/A   Clear
1:30 PM 41.0 °F 31.3 °F 1.4 °F 19% 30.42 in - NW 22.4 mph - N/A   Clear
2:00 PM 38 °F - 4 °F 12% 30.44 in 19 mi NNW 11.2 mph - -   Mostly Cloudy
2:00 PM 41.0 °F 31.3 °F 1.4 °F 19% 30.42 in - NW 22.4 mph - N/A   Clear
2:30 PM 41.0 °F 31.3 °F 1.4 °F 19% 30.42 in - NW 22.4 mph - N/A   Clear
3:00 PM 41.0 °F 31.8 °F 1.4 °F 19% 30.42 in - NNW 20.1 mph - N/A   Clear
3:30 PM 39.2 °F 28.9 °F -0.4 °F 19% 30.45 in - NW 22.4 mph 33.6 mph N/A   Clear
4:00 PM 37.4 °F 26.5 °F -0.4 °F 20% 30.45 in - NW 22.4 mph - N/A   Clear
4:30 PM 37.4 °F 27.0 °F 1.4 °F 22% 30.45 in - NW 20.1 mph - N/A   Clear
5:00 PM 37 °F - 1 °F 10% 30.48 in 19 mi North 6.7 mph - -   Scattered Clouds
5:00 PM 35.6 °F 24.7 °F 1.4 °F 24% 30.48 in - NW 20.1 mph - N/A   Clear
5:30 PM 35.6 °F 25.3 °F -0.4 °F 22% 30.48 in - NW 17.9 mph - N/A   Clear
6:00 PM 35.6 °F 24.7 °F -0.4 °F 22% 30.51 in - NW 20.1 mph - N/A   Clear
6:30 PM 33.8 °F 22.3 °F -0.4 °F 23% 30.51 in - NW 20.1 mph - N/A   Clear
7:00 PM 33.8 °F 21.2 °F -0.4 °F 23% 30.54 in - NW 24.6 mph - N/A   Clear
7:30 PM 33.8 °F 22.3 °F -0.4 °F 23% 30.54 in - NW 20.1 mph - N/A   Clear
8:00 PM 34 °F - 1 °F 12% 30.55 in 19 mi NNW 6.7 mph - -  
8:00 PM 33.8 °F 23.0 °F 1.4 °F 25% 30.54 in - NNW 17.9 mph - N/A   Clear
8:30 PM 33.8 °F 22.3 °F 1.4 °F 25% 30.54 in - NNW 20.1 mph - N/A   Clear
9:00 PM 32.0 °F 20.6 °F 1.4 °F 27% 30.54 in - NNW 17.9 mph - N/A   Clear
9:30 PM 32.0 °F 21.4 °F 1.4 °F 27% 30.57 in - NNW 15.7 mph - N/A   Clear
10:00 PM 32.0 °F 21.4 °F 5.0 °F 32% 30.57 in - NNW 15.7 mph - N/A   Clear
10:30 PM 32.0 °F 22.2 °F 5.0 °F 32% 30.57 in - NNW 13.4 mph - N/A   Clear
11:00 PM 32 °F - 3 °F 16% 30.56 in 19 mi NW 2.2 mph - -  
11:00 PM 32.0 °F 22.2 °F 1.4 °F 27% 30.54 in - NW 13.4 mph - N/A   Clear
11:30 PM 28.4 °F 18.7 °F 5.0 °F 37% 30.54 in - North 11.2 mph - N/A   Clear